Regional Weather Roundup
Issued by NWS Goodland, KS

Home | Current Version | Previous Version | Text Only | Print | Product List | Glossary Off
Versions: 1 2 3 4 5 6 7 8 9 10 11 12 13 14 15 16 17 18 19 20 21 22 23 24 25 26 27 28 29 30 31 32 33 34 35 36 37 38 39 40 41 42 43 44 45 46 47 48 49 50

000
ASUS43 KGLD 241208
RWRGLD

GOODLAND FORECAST AREA HOURLY WEATHER ROUNDUP
NATIONAL WEATHER SERVICE GOODLAND KS
600 AM MDT SAT SEP 24 2016

...OFFICIAL OBSERVATIONS...

CITY           SKY/WX    TMP DP  RH WIND       PRES   REMARKS
GOODLAND KS    CLEAR     48  44  86 NW8       29.97R
HILL CITY KS   CLOUDY    63  62  97 SW6       29.90R
IMPERIAL NEB   CLEAR     51  42  71 NW14      29.92S
MCCOOK NEB     PTCLDY    55  49  80 NW10      29.91R
AKRON CO       CLEAR     41  35  79 W3        29.98S
BURLINGTON CO  CLEAR     45  39  79 NW8       29.99S
LIMON CO       CLOUDY    30  28  92 CALM      30.00F
$$

...UNOFFICIAL OBSERVATIONS...

CITY           SKY/WX    TMP DP  RH WIND       PRES   REMARKS
COLBY KS       CLEAR     54  50  87 NW16G22   29.95
LENORA KS        N/A     60  32  34 MISG        N/A
NORTON KS      CLEAR     61  46  59 SW8       29.88
SHARON SPRINGS   N/A     49  44  84 NW14        N/A
KIT CARSON CO    N/A     45  39  81 MISG        N/A
$$




USA.gov is the U.S. government's official web portal to all federal, state and local government web resources and services.